カタログに戻る

ATLAS 5 CENTAUR DEB

LostHEO
NORAD 47340·DEBRIS·🇺🇸 United States

打ち上げ Oct 17, 2018 から Cape Canaveral Space Force Station

Loading…

次のパス (今後24時間)

TLE

古いSource: Space-Track

元期: Feb 16, 2021, 01:50 UTC

1 47340U 18079EM  21047.07703248 -.00000091  00000-0  00000+0 0  9998
2 47340  10.8723 225.0814 4040852 347.0369   4.9222  1.90578658   837

AllMySatでATLAS 5 CENTAUR DEBをリアルタイム追跡

Download on the App Store